STARLINK-32262 (60938 NORAD) Tracking and Keplerian Element Data

This shows tracking and keplerian element data for the satellite.

Feedback or suggestion? Click here.




ElementValue
Catalog60938
NameSTARLINK-32262
Epoch Orbit593
Epoch Day286.91668981
Epoch Year2024
RAAN344.6591
Inclination53.1539
Eccentricity0.0001225
Argument of Perigee62.4251
Mean Anonmoly329.2202
Mean Motion15.73989482
Decay Rate-0.01253878
L11 60938U 24155Q 24286.91668981 -.01253878 00000+0 -96047-2 0 9996
L22 60938 53.1539 344.6591 0001225 62.4251 329.2202 15.73989482 5939



Live tracking and technical data element details for STARLINK-32262 (NORAD 60938). STARLINK-32262 can be tracked NOW for your location showing map with azimuth and elevation plus other details from your city location.







IsCatalogInMostPopularTable: catalog: 60938, numindb: 9
Update: records affected: 1



GetName: 60938 STARLINK-32262

Hit Count: updated at: Tue, 03 Dec 2024 03:08:06 GMT